Location: Unspecified
(0.0000°N, 0.0000°E)
Time: 02:09:03
(UTC+00:00)

Hubble Space Telescope - Pass Details

Date: 04 March 2021
Orbit: 536 x 539 km, 28.5° (Epoch: 24 February)

Event Time Altitude Azimuth Distance (km) Brightness Sun altitude
Exits shadow 05:17:09 16° 241° (WSW) 1,423 2.4 -13.6°
Maximum altitude 05:18:52 21° 209° (SSW) 1,239 2.4 -13.1°
Drops below altitude 10° 05:22:01 10° 159° (SSE) 1,786 3.8 -12.4°
Sets 05:24:43 0° 142° (SE) 2,678 5.0 -11.7°
